Date,TemperatureHighF,TemperatureAvgF,TemperatureLowF,DewpointHighF,DewpointAvgF,DewpointLowF,HumidityHigh,HumidityAvg,HumidityLow,PressureMaxIn,PressureMinIn,WindSpeedMaxMPH,WindSpeedAvgMPH,GustSpeedMaxMPH,PrecipitationSumIn
2013-1-1,35.0,26.6,9.2,27.6,19.3,5.9,92,74,63,30.02,29.82,15,0,15,0.00
2013-1-2,28.7,16.8,3.9,19.2,10.4,0.9,90,76,58,30.24,30.01,14,1,14,0.00
2013-1-3,24.2,10.8,-4.1,17.4,4.0,-7.5,88,74,57,30.27,30.05,8,0,8,0.00
2013-1-4,36.8,27.6,18.5,26.4,21.0,15.8,93,76,62,30.06,29.90,13,1,13,0.01
2013-1-5,37.3,30.2,17.7,27.2,22.3,14.7,94,73,59,30.31,29.97,16,1,16,0.01
2013-1-6,41.7,31.3,19.9,30.5,26.0,17.4,100,81,61,30.24,29.97,8,0,8,0.07
2013-1-7,35.1,26.1,13.4,30.8,21.7,11.5,94,84,68,30.42,30.05,13,0,13,0.03
2013-1-8,43.4,30.7,13.3,30.5,24.8,11.3,95,79,58,30.43,30.33,11,1,11,0.12
2013-1-9,42.9,30.6,15.9,35.4,26.1,14.2,95,84,56,30.41,30.10,16,1,16,0.05
2013-1-10,42.9,35.9,24.3,30.6,26.4,21.6,91,69,56,30.59,30.21,16,1,16,0.01
2013-1-11,39.4,31.7,22.0,38.6,28.6,20.3,100,89,67,30.57,30.17,10,0,10,0.16
2013-1-12,45.0,39.9,36.8,43.3,39.0,35.9,100,97,93,30.20,30.13,5,0,5,0.00
2013-1-13,47.0,42.8,37.1,46.3,42.2,36.6,99,98,96,30.17,30.00,13,0,13,0.01
2013-1-14,50.2,42.6,33.1,49.3,38.1,25.9,98,84,66,30.34,29.87,11,1,11,0.09
2013-1-15,36.2,32.1,26.6,28.2,25.1,23.2,92,75,66,30.39,30.25,8,0,8,0.00
2013-1-16,32.6,31.0,28.3,31.5,29.0,23.4,96,93,73,30.26,29.86,0,0,0,0.01
2013-1-17,36.9,29.9,21.9,33.1,25.3,11.4,97,84,64,30.18,29.91,8,0,8,0.19
2013-1-18,24.8,19.3,12.8,13.3,8.3,2.3,83,62,46,30.47,30.09,19,1,19,0.00
2013-1-19,43.1,29.7,23.9,29.3,18.4,12.8,71,62,52,30.35,29.87,17,3,17,0.06
2013-1-20,47.4,36.7,24.8,34.9,24.0,10.7,76,60,33,30.03,29.64,17,2,17,0.00
2013-1-21,25.9,20.6,13.4,20.3,14.2,9.3,93,77,53,30.10,29.83,7,0,13,0.00
2013-1-22,21.1,15.4,7.0,17.6,2.9,-5.3,94,59,41,30.17,29.82,14,2,14,0.00
2013-1-23,15.9,7.2,-0.8,3.7,-2.1,-7.6,87,66,52,30.24,30.15,13,1,13,0.00
2013-1-24,18.5,7.0,-4.6,4.5,-2.9,-8.2,85,65,39,30.40,30.19,22,1,22,0.00
2013-1-25,18.4,12.7,3.7,12.1,3.7,-1.9,88,68,47,30.44,30.10,12,0,12,0.00
2013-1-26,21.2,12.7,4.0,9.7,5.9,1.2,91,75,54,30.39,30.09,9,0,9,0.00
2013-1-27,28.5,16.9,7.3,10.9,5.6,0.7,90,64,32,30.55,30.38,11,0,11,0.00
2013-1-28,31.8,24.5,12.1,30.3,19.8,5.1,94,82,58,30.53,30.00,8,0,8,0.00
2013-1-29,43.2,35.9,31.6,39.0,34.1,30.1,97,93,84,30.18,30.01,7,0,7,0.16
2013-1-30,57.5,49.2,36.3,55.8,48.0,35.1,100,95,92,30.11,29.36,14,1,14,0.15
2013-1-31,59.4,42.3,28.1,57.1,33.0,10.9,98,71,44,29.67,28.96,22,3,22,1.09
2013-2-1,29.3,24.5,19.3,18.2,11.3,7.4,75,57,45,30.19,29.67,18,2,18,0.00
2013-2-2,27.2,20.5,11.7,16.9,11.2,6.9,89,68,44,30.27,30.07,12,1,12,0.00
2013-2-3,29.9,20.4,11.2,18.6,14.6,8.9,92,79,57,30.09,29.81,9,0,9,0.02
2013-2-4,27.5,21.2,16.1,17.4,12.2,6.5,92,70,45,29.99,29.81,18,2,18,0.00
2013-2-5,32.3,24.4,18.7,23.6,17.4,12.2,88,75,56,30.04,29.92,4,0,8,0.00
2013-2-6,36.7,27.7,18.3,27.5,18.7,4.9,92,71,43,30.40,29.92,16,1,16,0.01
2013-2-7,31.7,22.9,12.1,15.1,9.8,6.7,92,58,39,30.56,30.38,10,0,10,0.00
2013-2-8,31.0,26.9,22.3,27.0,21.5,10.9,94,81,51,30.42,29.78,24,3,24,0.00
2013-2-9,24.4,18.9,10.7,21.3,14.3,1.6,94,82,60,30.39,29.83,16,1,16,0.04
2013-2-10,32.5,16.2,4.1,14.6,6.2,-2.8,83,66,39,30.54,30.35,6,0,6,0.01
2013-2-11,41.2,34.5,12.5,39.9,31.7,8.1,97,90,66,30.35,29.69,11,1,11,0.05
2013-2-12,39.2,36.5,33.0,33.9,28.1,24.2,96,71,66,29.97,29.72,14,2,14,0.00
2013-2-13,42.0,34.5,30.7,27.2,24.8,23.1,83,68,49,29.94,29.74,8,0,12,0.00
2013-2-14,42.1,31.9,21.0,28.1,24.2,18.4,91,74,52,29.99,29.74,9,0,9,0.00
2013-2-15,50.2,40.0,33.7,33.1,29.3,26.3,82,66,49,30.02,29.91,11,1,11,0.00
2013-2-16,33.7,29.1,24.7,29.4,21.4,13.1,92,73,60,30.03,29.81,8,0,8,0.01
2013-2-17,24.6,19.5,13.9,13.4,7.2,3.2,68,59,43,29.95,29.67,22,2,22,0.00
2013-2-18,30.8,18.9,10.1,11.7,6.6,2.4,79,60,36,30.23,29.95,18,1,18,0.00
2013-2-19,42.6,32.5,16.6,36.0,25.3,9.5,96,76,53,30.22,29.65,14,1,14,0.20
2013-2-20,33.8,27.3,22.5,32.5,17.3,10.9,95,66,48,29.95,29.68,26,3,26,0.02
2013-2-21,24.9,22.0,18.5,16.6,13.9,11.9,80,71,64,30.40,29.92,17,2,17,0.00
2013-2-22,37.5,28.5,17.9,26.5,21.3,14.8,89,75,59,30.47,30.30,7,0,7,0.00
2013-2-23,37.7,34.8,32.6,34.2,31.1,25.9,94,86,76,30.30,29.88,15,2,15,0.01
2013-2-24,37.3,33.9,30.0,34.8,31.4,26.3,97,91,76,30.01,29.78,10,0,10,0.08
2013-2-25,40.9,33.2,23.1,32.3,27.5,21.4,95,80,64,30.28,30.00,8,0,8,0.01
2013-2-26,43.0,35.1,27.0,32.2,27.9,25.2,95,76,56,30.33,30.04,17,1,17,0.01
2013-2-27,44.0,38.3,32.6,40.2,35.7,27.2,97,90,75,30.04,29.53,32,9,32,1.16
2013-2-28,41.4,37.1,34.6,38.8,35.5,33.2,98,94,85,29.64,29.57,4,0,4,0.07
2013-3-1,39.7,35.0,31.3,33.7,31.5,27.1,96,87,75,29.79,29.62,9,0,9,0.01
2013-3-2,34.6,30.4,25.6,27.9,25.8,22.7,92,83,73,29.79,29.73,10,0,10,0.01
2013-3-3,29.6,26.1,23.0,25.8,21.5,16.9,89,82,76,29.79,29.71,12,0,12,0.02
2013-3-4,32.7,28.3,25.0,26.0,22.8,20.0,92,80,70,29.93,29.78,15,1,15,0.00
2013-3-5,41.1,32.4,27.5,30.0,26.2,23.7,91,78,62,30.10,29.93,10,0,10,0.00
2013-3-6,43.3,35.2,0.0,35.7,30.1,0.0,93,81,67,30.11,30.02,18,2,18,0.00
2013-3-7,35.4,32.5,29.1,31.8,28.7,25.9,95,86,76,30.15,30.06,15,1,15,0.01
2013-3-8,36.7,31.0,28.0,30.6,27.5,24.3,95,87,73,30.29,30.06,13,1,13,0.08
2013-3-9,48.6,34.8,25.7,31.3,26.1,22.0,89,72,48,30.37,30.27,14,0,14,0.20
2013-3-10,52.7,39.3,23.7,33.4,27.8,20.7,91,66,39,30.41,30.26,9,1,9,0.00
2013-3-11,50.5,42.5,34.1,43.2,36.2,30.3,91,79,62,30.31,30.09,10,1,10,0.00
2013-3-12,53.2,48.9,37.6,51.8,46.5,35.1,96,91,85,30.09,29.68,17,1,17,0.85
2013-3-13,47.1,38.2,32.2,35.1,29.6,23.8,92,72,46,29.87,29.80,12,1,12,0.00
2013-3-14,32.9,27.5,24.3,28.2,18.4,12.5,91,69,55,29.93,29.84,18,2,18,0.01
2013-3-15,38.5,29.4,19.5,30.0,20.6,11.7,90,70,46,29.96,29.71,17,1,17,0.00
2013-3-16,37.2,30.6,22.2,28.0,19.4,12.5,87,64,41,29.95,29.80,11,0,11,0.00
2013-3-17,35.2,27.5,19.1,19.4,13.7,9.8,76,58,36,30.36,29.94,16,1,16,0.00
2013-3-18,37.8,26.4,13.6,25.2,12.9,6.0,91,61,30,30.47,30.11,18,1,18,0.00
2013-3-19,36.7,31.8,27.5,34.0,29.4,25.3,96,91,85,30.11,29.72,21,2,21,0.17
2013-3-20,37.5,29.4,21.8,26.5,21.7,19.7,93,74,50,29.86,29.80,11,1,18,0.16
2013-3-21,37.0,27.0,17.4,21.1,16.6,13.0,93,67,42,29.86,29.66,8,0,8,0.07
2013-3-22,35.6,27.5,16.0,27.5,20.7,11.1,91,76,59,29.86,29.73,14,1,14,0.02
2013-3-23,40.6,34.0,29.6,28.2,24.0,20.4,92,68,49,29.92,29.81,21,2,21,0.01
2013-3-24,41.8,33.9,26.8,27.6,24.3,21.4,84,68,53,29.94,29.77,12,0,12,0.00
2013-3-25,46.2,37.2,29.4,29.3,26.4,23.9,83,66,46,29.79,29.51,15,1,15,0.00
2013-3-26,46.4,36.8,25.8,31.7,27.3,22.2,86,70,44,29.88,29.62,11,0,11,0.00
2013-3-27,52.0,36.4,20.7,32.6,26.2,19.0,94,69,35,29.97,29.86,14,1,14,0.00
2013-3-28,46.2,40.0,35.2,36.7,33.3,29.8,86,77,67,30.12,29.96,10,0,10,0.00
2013-3-29,50.7,40.1,27.4,35.9,31.1,25.6,94,72,48,30.16,30.07,11,1,11,0.00
2013-3-30,56.1,41.0,26.4,35.0,27.6,21.4,94,63,30,30.17,30.08,11,0,13,0.00
2013-3-31,55.2,40.8,24.8,39.9,29.8,21.8,94,68,36,30.16,29.73,14,1,14,0.09
2013-4-1,55.6,41.0,30.1,47.0,35.2,18.1,100,81,49,29.90,29.59,14,1,14,0.04
2013-4-2,38.2,31.5,23.8,21.9,16.9,11.3,77,56,37,30.05,29.90,22,2,22,0.00
2013-4-3,42.2,33.2,26.9,21.4,17.9,15.1,78,54,38,30.31,30.04,21,3,21,0.00
2013-4-4,53.2,39.0,22.5,27.5,21.3,15.6,85,52,27,30.40,30.05,12,1,12,0.00
2013-4-5,56.4,43.8,34.4,30.5,25.7,21.8,70,50,30,30.05,29.76,17,1,17,0.00
2013-4-6,46.1,35.9,27.9,26.3,15.9,9.4,73,46,24,30.33,30.00,13,1,13,0.00
2013-4-7,56.4,44.3,28.3,42.2,29.9,14.5,81,58,31,30.31,29.97,18,2,18,0.00
2013-4-8,63.7,51.1,37.3,44.0,39.4,34.4,93,66,41,30.13,29.99,13,0,13,0.00
2013-4-9,66.5,59.2,53.5,52.9,46.9,41.5,82,64,49,30.02,29.89,14,1,14,0.02
2013-4-10,61.4,53.7,47.2,51.8,48.8,41.6,96,84,62,30.02,29.82,9,0,9,0.29
2013-4-11,49.9,43.3,34.0,48.5,38.4,30.1,97,84,62,30.14,29.87,10,1,10,0.04
2013-4-12,39.1,37.5,34.3,36.5,34.7,32.7,95,90,81,30.14,29.79,25,2,25,0.39
2013-4-13,51.7,45.8,36.4,41.2,38.5,34.8,94,76,59,29.97,29.86,10,1,10,0.04
2013-4-14,48.6,40.8,29.6,37.7,32.8,26.3,94,75,52,30.27,29.95,16,1,16,0.00
2013-4-15,61.0,44.8,29.0,38.4,32.2,26.2,91,64,41,30.40,30.26,11,1,11,0.00
2013-4-16,63.1,53.0,41.3,54.7,44.5,30.0,88,73,57,30.38,30.09,14,1,14,0.09
2013-4-17,61.2,51.6,41.2,54.8,39.7,33.2,94,66,39,30.34,30.13,13,1,13,0.11
2013-4-18,61.2,52.3,39.3,50.9,37.7,31.5,92,59,38,30.38,30.10,14,2,14,0.24
2013-4-19,72.0,61.8,47.3,63.0,57.8,45.5,96,87,72,30.11,29.59,18,2,18,0.62
2013-4-20,55.7,45.3,34.6,45.4,35.7,26.8,95,72,42,30.35,29.69,19,1,19,0.46
2013-4-21,49.9,38.8,30.0,29.3,24.1,20.1,77,57,34,30.67,30.35,13,1,13,0.00
2013-4-22,58.2,44.7,30.5,33.4,27.8,22.7,81,54,30,30.73,30.53,18,2,18,0.00
2013-4-23,49.6,41.4,33.7,41.2,35.1,28.1,88,78,70,30.56,30.17,13,1,13,0.00
2013-4-24,73.2,55.7,42.2,51.4,45.6,38.6,92,71,43,30.17,29.77,11,1,11,0.00
2013-4-25,56.8,48.7,37.2,52.6,36.9,27.9,94,65,37,30.29,29.81,13,1,13,0.07
2013-4-26,59.1,46.9,33.2,41.9,33.7,28.4,84,62,38,30.47,30.28,10,1,10,0.00
2013-4-27,65.7,48.5,29.7,39.9,32.9,24.1,93,60,23,30.47,30.31,8,0,8,0.00
2013-4-28,73.3,55.5,34.9,47.1,37.8,31.7,92,56,28,30.34,30.17,11,0,11,0.00
2013-4-29,59.0,54.1,48.7,48.0,42.2,31.7,83,65,43,30.25,30.20,10,0,10,0.01
2013-4-30,72.2,58.9,45.7,46.0,38.9,31.1,81,51,27,30.34,30.24,7,0,7,0.00
2013-5-1,75.5,57.6,35.9,43.8,36.0,28.8,87,51,20,30.48,30.34,11,1,11,0.00
2013-5-2,79.5,61.1,38.6,51.1,43.3,36.8,95,58,29,30.48,30.28,24,1,24,0.00
2013-5-3,70.3,58.6,48.3,44.9,38.1,31.9,76,48,30,30.48,30.33,18,2,18,0.00
2013-5-4,75.8,59.3,38.6,50.8,41.6,27.3,97,58,27,30.38,30.20,11,1,11,0.00
2013-5-5,74.8,55.4,37.3,43.9,37.0,24.8,96,58,17,30.32,30.17,11,1,11,0.00
2013-5-6,74.0,56.3,34.6,51.5,43.9,33.3,97,68,28,30.28,30.11,8,0,8,0.00
2013-5-7,79.8,62.5,42.7,56.1,50.5,41.4,98,69,36,30.18,30.06,7,0,7,0.00
2013-5-8,71.2,62.1,54.8,63.0,57.6,52.6,95,86,65,30.15,29.99,15,1,15,0.09
2013-5-9,65.0,57.9,50.6,59.5,54.9,49.7,98,90,74,30.03,29.89,5,0,5,0.15
2013-5-10,77.7,63.2,49.2,61.5,54.7,48.4,98,77,47,30.01,29.88,10,0,10,0.00
2013-5-11,67.5,62.7,55.5,64.3,59.9,53.0,97,91,71,29.88,29.69,9,0,9,0.32
2013-5-12,60.1,53.2,41.0,53.8,44.5,29.6,96,75,37,29.89,29.68,13,1,13,0.08
2013-5-13,51.1,43.3,33.7,35.8,32.1,28.6,92,66,47,30.12,29.89,14,1,14,0.00
2013-5-14,58.1,43.5,28.6,37.8,32.0,27.2,96,68,35,30.15,30.04,13,1,13,0.00
2013-5-15,65.0,50.0,31.4,54.7,42.8,29.4,93,77,51,30.10,29.68,13,0,13,0.03
2013-5-16,80.0,64.3,44.2,52.3,43.7,37.3,98,55,22,29.86,29.70,19,1,19,0.00
2013-5-17,68.0,56.8,43.5,46.8,42.8,37.4,90,61,39,30.24,29.86,13,1,13,0.00
2013-5-18,70.9,57.2,40.4,49.8,44.8,38.3,93,67,36,30.32,30.24,6,0,10,0.00
2013-5-19,58.2,54.2,46.0,55.9,52.0,44.4,96,92,82,30.34,30.18,10,0,10,0.05
2013-5-20,82.5,67.4,55.8,67.3,60.9,54.4,96,81,54,30.18,29.95,8,0,8,0.00
2013-5-21,88.7,69.8,56.3,72.4,64.7,55.5,100,86,54,29.98,29.81,11,0,11,1.80
2013-5-22,76.5,68.0,59.5,72.1,65.7,58.9,98,93,84,29.93,29.82,10,0,11,1.42
2013-5-23,73.2,68.4,63.8,69.3,66.1,61.7,97,92,83,29.88,29.74,9,0,9,0.61
2013-5-24,65.0,52.8,43.2,64.1,51.7,41.8,98,96,92,29.98,29.67,13,1,13,0.49
2013-5-25,45.0,43.2,42.1,43.9,42.0,40.7,97,96,95,29.97,29.90,19,2,19,0.86
2013-5-26,55.4,47.0,38.2,45.5,42.4,36.8,97,85,65,30.20,29.90,19,1,19,0.08
2013-5-27,71.2,52.9,33.4,47.0,40.4,32.6,98,69,31,30.26,30.14,16,1,16,0.00
2013-5-28,70.8,56.0,39.2,55.8,47.1,37.8,96,75,39,30.25,30.15,10,0,10,0.00
2013-5-29,80.0,65.6,56.6,70.9,62.4,55.5,98,90,71,30.16,29.96,20,0,20,1.56
2013-5-30,89.2,73.3,58.3,73.1,66.9,57.7,99,82,53,30.13,30.05,10,0,10,0.01
2013-5-31,91.6,76.8,60.9,72.9,66.8,60.0,98,74,45,30.14,29.96,7,0,7,0.00
2013-6-1,90.2,76.9,60.5,73.4,67.4,59.1,96,75,50,30.01,29.87,9,0,9,0.00
2013-6-2,86.5,75.1,67.7,73.9,69.1,66.3,97,82,62,29.89,29.74,10,0,10,0.20
2013-6-3,72.8,65.7,51.9,66.5,59.6,42.2,98,82,62,29.96,29.81,11,0,11,0.03
2013-6-4,70.0,57.3,44.3,51.6,46.2,41.8,92,69,43,30.16,29.96,19,1,19,0.00
2013-6-5,73.1,59.6,43.5,55.9,48.3,42.0,96,70,34,30.23,30.12,8,0,8,0.00
2013-6-6,71.6,59.8,49.0,57.1,52.4,47.6,96,79,46,30.18,30.05,11,0,11,0.15
2013-6-7,57.3,56.2,54.1,56.2,54.6,53.1,99,94,89,30.05,29.78,17,1,17,1.22
2013-6-8,72.5,60.6,53.1,64.3,57.3,52.3,98,89,71,30.08,29.71,9,0,9,0.49
2013-6-9,76.4,64.2,50.7,63.0,57.1,49.9,98,79,54,30.20,30.08,9,0,9,0.00
2013-6-10,64.8,60.4,54.4,62.3,57.9,52.7,95,91,80,30.21,29.88,22,1,22,0.60
2013-6-11,72.3,63.2,58.1,67.4,61.1,56.6,97,93,84,29.89,29.60,11,1,11,0.65
2013-6-12,71.0,62.2,54.5,59.2,55.3,52.6,95,79,55,29.89,29.68,17,1,17,0.01
2013-6-13,56.7,54.3,50.7,55.9,53.2,49.6,99,96,94,29.86,29.64,17,1,17,1.47
2013-6-14,74.0,60.0,50.2,60.9,55.4,49.4,98,86,53,29.90,29.67,15,0,15,0.50
2013-6-15,77.2,62.9,49.5,59.5,53.3,48.7,99,75,39,30.02,29.90,13,1,13,0.01
2013-6-16,73.1,62.2,47.2,63.5,56.3,46.1,98,82,61,30.00,29.74,9,0,9,0.00
2013-6-17,83.8,66.3,53.7,68.3,60.7,52.8,98,84,48,29.94,29.81,13,0,13,0.10
2013-6-18,74.7,62.9,56.2,67.6,60.3,55.4,98,91,72,29.96,29.89,13,0,13,0.56
2013-6-19,71.0,60.5,50.5,57.5,51.1,44.0,98,74,41,30.21,29.95,10,1,10,0.01
2013-6-20,78.1,63.5,45.2,61.8,53.4,44.1,97,73,46,30.29,30.20,8,0,8,0.00
2013-6-21,82.3,68.4,54.2,69.0,61.8,52.8,97,81,57,30.29,30.22,6,0,6,0.00
2013-6-22,82.9,71.3,57.3,66.8,62.3,56.1,96,75,53,30.25,30.10,8,0,8,0.00
2013-6-23,89.0,78.1,68.0,75.5,68.0,60.7,85,72,46,30.17,30.02,10,1,10,0.00
2013-6-24,89.1,76.4,66.7,76.1,70.4,65.1,96,83,61,30.06,29.93,19,0,19,0.18
2013-6-25,88.8,79.8,63.2,75.3,71.0,62.6,98,76,59,29.96,29.79,15,0,15,0.00
2013-6-26,80.7,73.4,66.5,73.1,69.3,65.6,97,87,69,29.85,29.78,10,0,10,0.01
2013-6-27,81.5,72.7,64.0,74.2,69.0,63.0,98,89,73,29.85,29.62,13,0,13,0.09
2013-6-28,82.1,76.1,68.5,74.5,70.0,67.0,96,82,67,29.54,29.47,9,0,9,0.81
2013-6-29,82.6,72.2,64.4,70.3,66.0,63.3,98,82,57,29.72,29.50,11,0,11,0.01
2013-6-30,72.6,66.2,62.3,68.0,65.0,61.4,98,96,85,29.95,29.72,3,0,3,0.18
2013-7-1,76.8,72.0,68.2,74.1,70.4,67.6,99,95,89,30.06,29.93,7,0,7,1.11
2013-7-2,83.3,76.3,71.3,75.8,72.6,69.9,98,89,76,30.17,30.06,9,0,9,0.03
2013-7-3,85.0,76.7,71.5,77.6,72.4,70.0,95,87,73,30.25,30.16,10,0,10,0.01
2013-7-4,88.0,79.8,71.2,77.3,73.7,69.8,97,82,66,30.25,30.14,10,0,10,0.00
2013-7-5,90.2,81.4,73.5,79.0,74.1,71.3,93,79,63,30.21,30.08,9,0,9,0.00
2013-7-6,87.2,79.6,71.1,76.0,73.2,69.5,96,82,65,30.14,30.03,9,0,9,0.00
2013-7-7,89.8,75.1,68.0,77.9,71.9,67.1,98,90,64,30.08,29.95,4,0,9,0.60
2013-7-8,84.0,74.5,69.2,75.7,71.1,67.4,98,90,69,30.07,29.97,6,0,6,0.46
2013-7-9,86.1,75.2,67.0,76.0,70.3,66.2,98,86,67,30.11,30.02,8,0,8,0.00
2013-7-10,83.1,75.3,69.4,77.1,72.5,68.1,97,91,78,30.04,29.81,8,0,8,0.15
2013-7-11,79.3,73.2,63.5,72.1,68.1,62.0,98,85,62,29.99,29.80,10,0,10,0.01
2013-7-12,81.8,74.0,61.1,68.5,64.1,57.3,97,72,59,30.19,29.99,9,1,10,0.00
2013-7-13,80.0,72.0,66.9,73.8,66.5,56.4,95,83,63,30.33,30.19,10,1,10,0.08
2013-7-14,88.1,78.1,68.9,76.9,72.7,68.0,98,85,62,30.36,30.25,9,0,9,0.00
2013-7-15,90.0,79.1,69.8,75.6,72.0,68.9,98,81,56,30.27,30.17,10,0,10,0.00
2013-7-16,89.5,77.8,64.8,75.5,70.2,63.9,98,79,50,30.25,30.17,9,0,9,0.00
2013-7-17,92.0,79.4,66.3,76.7,71.7,65.4,98,79,52,30.24,30.06,8,0,8,0.00
2013-7-18,92.7,79.7,70.7,78.3,73.3,68.3,97,82,56,30.08,29.98,8,0,8,0.02
2013-7-19,93.3,81.0,67.4,80.2,73.3,66.5,98,79,59,30.00,29.77,8,0,8,0.00
2013-7-20,88.3,78.0,65.2,77.2,71.6,63.1,96,82,62,29.89,29.72,12,0,12,0.00
2013-7-21,85.3,72.8,59.4,71.1,64.8,58.0,97,78,50,30.01,29.89,6,0,6,0.00
2013-7-22,85.9,74.0,63.2,74.1,68.0,61.8,97,83,56,30.02,29.84,12,0,12,0.60
2013-7-23,81.1,74.4,69.9,75.3,71.9,68.7,98,92,74,29.84,29.59,8,0,8,0.40
2013-7-24,74.7,68.8,55.9,70.8,63.2,52.1,98,83,62,30.03,29.64,11,0,11,0.00
2013-7-25,71.7,62.1,50.5,62.8,56.4,49.1,96,82,65,30.12,30.02,9,0,9,0.00
2013-7-26,76.8,66.5,59.1,65.1,60.2,57.1,95,81,58,30.09,30.02,11,0,11,0.00
2013-7-27,82.6,69.5,54.5,67.9,61.8,53.5,98,78,52,30.08,29.98,10,0,10,0.00
2013-7-28,74.0,67.7,63.2,71.8,65.7,61.2,97,93,83,30.03,29.95,5,0,5,0.36
2013-7-29,81.5,71.7,64.2,69.1,65.0,57.8,98,81,53,30.14,29.99,7,0,7,0.00
2013-7-30,77.2,65.9,53.9,63.8,59.3,52.8,97,81,55,30.19,30.11,11,0,11,0.00
2013-7-31,79.9,67.3,53.3,63.7,59.2,52.4,98,78,47,30.20,30.06,7,0,7,0.00
2013-8-1,75.3,64.4,57.5,67.4,62.2,56.7,98,93,72,30.07,29.88,10,0,10,0.30
2013-8-2,79.5,69.1,61.3,67.7,63.5,60.6,99,84,55,29.92,29.83,8,0,8,0.01
2013-8-3,80.0,66.9,56.9,69.0,61.0,55.4,98,82,58,29.92,29.83,9,0,9,0.07
2013-8-4,74.6,63.1,51.2,64.2,56.4,50.4,98,80,56,30.00,29.87,10,0,12,0.04
2013-8-5,74.2,61.9,49.3,55.4,52.0,48.2,98,73,44,30.08,29.99,14,1,14,0.00
2013-8-6,79.7,64.5,47.7,59.7,54.2,46.6,97,73,42,30.15,30.08,10,0,10,0.00
2013-8-7,77.5,67.2,57.7,65.5,61.7,55.8,96,83,63,30.18,30.08,7,0,7,0.02
2013-8-8,82.3,74.3,68.0,73.4,69.5,65.4,94,86,70,30.08,30.00,12,0,12,0.01
2013-8-9,78.0,72.3,69.4,75.6,71.0,68.5,98,96,89,30.01,29.80,8,0,8,2.35
2013-8-10,79.8,68.2,53.7,68.9,61.2,51.3,99,80,51,30.10,29.89,14,1,14,0.00
2013-8-11,78.2,63.0,47.2,63.7,55.6,46.2,98,79,49,30.17,30.05,9,0,10,0.00
2013-8-12,81.1,67.5,54.5,65.3,59.9,53.7,98,79,50,30.08,29.94,8,0,8,0.00
2013-8-13,75.1,66.0,61.5,69.7,64.2,60.3,98,94,80,29.95,29.70,9,0,9,1.31
2013-8-14,71.0,60.4,50.5,61.5,54.4,49.7,98,82,58,30.05,29.79,21,1,21,0.00
2013-8-15,74.0,59.8,45.9,58.5,52.6,45.1,98,80,48,30.17,30.05,12,0,12,0.00
2013-8-16,77.4,62.9,50.3,62.3,55.7,49.4,98,80,48,30.24,30.16,4,0,6,0.00
2013-8-17,80.0,65.3,50.8,64.1,57.2,50.0,98,78,45,30.32,30.24,8,0,8,0.00
2013-8-18,75.5,65.2,55.1,67.5,61.1,54.0,100,87,65,30.30,30.14,5,0,5,0.00
2013-8-19,77.0,66.4,56.2,66.6,61.8,55.4,98,86,61,30.14,30.04,12,0,12,0.00
2013-8-20,82.8,68.1,54.7,70.6,62.4,53.9,99,84,54,30.16,30.07,8,0,8,0.00
2013-8-21,85.8,70.1,55.4,69.9,63.6,54.6,99,82,52,30.21,30.07,8,0,8,0.00
2013-8-22,84.3,72.2,58.5,75.3,67.4,57.6,98,86,70,30.09,29.87,8,0,8,0.00
2013-8-23,76.5,68.2,54.5,66.8,59.6,51.2,96,76,45,30.19,29.91,11,0,11,0.00
2013-8-24,76.7,61.8,46.3,60.1,53.4,45.2,98,77,50,30.39,30.18,10,0,10,0.00
2013-8-25,81.0,64.6,46.7,62.0,55.9,45.9,98,76,47,30.43,30.22,9,0,9,0.00
2013-8-26,71.8,67.3,61.7,68.2,62.8,57.5,98,86,72,30.23,29.92,9,0,9,0.22
2013-8-27,81.8,71.4,64.6,72.1,68.2,63.5,98,91,68,29.95,29.85,8,0,8,0.23
2013-8-28,88.2,71.8,59.6,72.6,66.4,59.0,99,85,51,29.95,29.85,8,0,8,0.24
2013-8-29,80.3,69.7,63.4,69.0,65.7,62.5,98,88,66,30.07,29.94,8,0,8,0.01
2013-8-30,84.2,72.2,65.4,70.8,67.0,63.1,95,85,58,30.05,29.86,6,0,6,0.00
2013-8-31,83.0,75.1,69.9,75.6,71.7,68.8,97,89,76,29.86,29.78,10,0,10,0.08
2013-9-1,82.3,72.8,67.7,76.2,70.8,66.9,99,94,78,29.89,29.83,9,0,9,1.27
2013-9-2,80.8,71.5,65.6,74.6,69.9,64.1,99,95,80,29.85,29.71,9,0,9,0.73
2013-9-3,74.8,65.4,56.8,65.6,61.7,55.4,99,89,67,29.92,29.77,10,0,10,0.01
2013-9-4,79.3,65.6,55.7,62.9,58.6,54.7,98,81,49,30.00,29.91,14,0,14,0.01
2013-9-5,69.8,60.1,47.4,60.8,52.8,43.6,98,79,45,30.20,29.93,12,0,12,0.00
2013-9-6,67.5,53.1,40.2,50.3,45.4,39.0,100,78,44,30.31,30.16,15,0,15,0.00
2013-9-7,76.0,58.8,43.1,61.7,52.3,42.2,100,82,43,30.17,29.91,7,0,7,0.00
2013-9-8,71.0,60.7,45.6,64.9,55.5,44.2,97,85,51,30.16,29.83,12,0,12,0.01
2013-9-9,69.5,55.6,39.8,55.3,48.3,38.8,98,79,52,30.29,30.15,10,0,10,0.00
2013-9-10,78.3,69.1,59.6,73.7,66.3,54.8,97,91,84,30.16,30.01,11,0,11,0.13
2013-9-11,92.8,78.9,67.4,80.5,73.7,66.5,98,85,61,30.12,29.98,11,0,11,0.19
2013-9-12,75.0,67.3,65.4,72.6,66.5,64.8,99,97,92,29.99,29.71,7,0,7,1.33
2013-9-13,70.5,63.5,53.3,65.2,60.8,49.5,99,91,78,29.89,29.66,13,0,13,0.05
2013-9-14,63.1,54.3,46.0,53.3,49.8,44.8,96,85,67,30.15,29.89,9,0,9,0.00
2013-9-15,68.8,53.5,39.0,55.8,48.5,38.2,98,85,58,30.25,30.11,7,0,7,0.00
2013-9-16,65.2,55.4,44.0,56.7,51.9,41.5,98,89,70,30.33,30.08,11,0,11,0.08
2013-9-17,62.7,48.8,36.3,49.6,43.2,35.2,98,83,59,30.50,30.33,9,0,9,0.00
2013-9-18,72.2,52.7,36.6,52.3,45.6,35.8,98,80,43,30.39,30.20,7,0,7,0.00
2013-9-19,77.2,56.9,40.1,57.8,49.8,39.3,98,80,43,30.22,30.09,6,0,6,0.00
2013-9-20,80.0,60.1,44.6,62.2,52.8,43.8,98,80,41,30.12,30.00,6,0,6,0.00
2013-9-21,71.9,62.3,50.2,64.8,58.6,49.4,98,88,72,30.03,29.66,10,1,10,0.22
2013-9-22,66.1,59.4,54.8,64.8,54.1,44.7,98,83,63,29.86,29.65,17,1,17,0.48
2013-9-23,59.6,51.2,39.8,46.5,43.5,38.5,100,76,59,30.10,29.99,11,1,11,0.70
2013-9-24,65.2,50.1,36.1,50.8,43.2,35.0,97,80,50,30.10,29.92,14,0,14,0.00
2013-9-25,68.8,53.2,38.0,53.3,47.1,37.2,98,82,51,30.01,29.93,9,0,9,0.00
2013-9-26,64.8,54.7,45.9,53.5,50.2,44.3,97,86,62,30.17,30.00,9,0,9,0.00
2013-9-27,60.9,52.2,41.5,55.3,49.2,40.7,100,90,78,30.33,30.17,6,0,6,0.00
2013-9-28,71.9,55.7,41.4,59.1,51.2,40.6,98,86,61,30.39,30.28,9,0,9,0.00
2013-9-29,75.0,58.0,45.8,59.6,51.4,45.0,98,81,45,30.28,30.10,6,0,6,0.00
2013-9-30,73.8,56.5,45.6,56.9,50.7,44.8,98,83,47,30.14,30.00,4,0,6,0.00
2013-10-1,76.5,58.0,41.2,63.2,52.8,40.4,98,85,56,30.06,29.93,10,0,10,0.00
2013-10-2,77.6,60.2,46.9,65.5,55.8,46.1,100,87,63,30.07,29.94,13,0,13,0.00
2013-10-3,76.0,57.7,42.8,57.6,50.2,41.9,98,80,39,30.16,30.06,6,0,6,0.00
2013-10-4,75.7,61.5,50.6,66.7,58.3,49.5,97,90,71,30.11,30.02,8,0,8,0.07
2013-10-5,68.3,62.1,58.9,65.2,60.7,57.9,98,95,88,30.14,30.07,8,0,8,0.04
2013-10-6,62.8,59.5,58.1,61.7,57.7,55.7,98,94,90,30.16,30.08,15,1,15,0.02
2013-10-7,74.8,63.3,51.6,68.3,61.1,51.0,98,93,77,30.09,29.72,24,1,24,1.15
2013-10-8,63.0,51.6,41.7,51.0,45.5,40.2,98,82,52,30.42,29.99,13,0,13,0.01
2013-10-9,66.0,50.2,37.5,46.9,42.2,36.5,98,78,41,30.51,30.39,9,0,9,0.00
2013-10-10,57.7,50.3,40.6,48.7,44.1,38.8,95,80,62,30.39,30.20,6,0,6,0.00
2013-10-11,75.2,57.1,43.7,58.7,49.2,41.5,93,77,49,30.20,30.10,9,0,9,0.00
2013-10-12,71.8,55.6,41.9,56.9,49.6,40.6,96,81,55,30.38,30.18,21,1,21,0.00
2013-10-13,67.7,57.1,47.8,52.8,49.5,45.8,93,77,56,30.45,30.36,11,1,11,0.00
2013-10-14,69.8,55.1,40.8,55.8,49.2,39.8,100,82,51,30.41,30.26,7,0,7,0.00
2013-10-15,69.3,61.5,54.5,59.9,55.7,44.2,94,82,61,30.31,30.16,7,0,7,0.00
2013-10-16,62.4,56.1,48.6,56.5,51.3,44.4,94,84,73,30.16,29.93,8,0,8,0.00
2013-10-17,73.9,62.3,55.5,60.7,55.8,49.5,96,81,45,29.93,29.67,8,0,9,0.04
2013-10-18,65.5,57.5,43.3,61.4,48.6,40.0,94,74,45,29.99,29.64,16,1,16,0.01
2013-10-19,64.5,50.0,34.9,50.2,42.0,33.9,97,77,44,30.02,29.77,11,0,11,0.02
2013-10-20,60.8,50.2,40.4,50.4,39.8,34.6,95,70,40,30.08,29.76,14,1,14,0.00
2013-10-21,65.3,50.0,33.0,46.0,39.7,31.7,100,71,42,30.18,29.99,9,0,9,0.00
2013-10-22,56.4,49.0,35.5,50.9,44.5,33.8,94,85,75,29.99,29.77,11,0,11,0.01
2013-10-23,53.5,40.7,31.4,39.3,34.5,30.4,98,81,46,29.87,29.66,7,0,7,0.03
2013-10-24,51.4,41.0,30.5,39.7,30.9,26.5,96,71,41,29.98,29.77,12,1,14,0.00
2013-10-25,48.8,40.4,32.6,35.4,32.9,30.0,92,75,56,30.23,29.98,12,0,12,0.00
2013-10-26,52.2,41.4,28.1,35.8,31.1,26.8,97,70,42,30.22,29.89,15,1,15,0.01
2013-10-27,52.2,44.5,30.0,38.2,33.6,28.0,92,67,46,30.13,29.85,16,1,16,0.00
2013-10-28,56.2,39.1,25.8,38.5,31.5,24.6,96,76,48,30.40,30.13,16,0,16,0.00
2013-10-29,48.6,37.5,29.1,30.1,27.8,25.7,91,70,43,30.50,30.39,8,0,8,0.00
2013-10-30,58.0,44.5,34.5,44.8,38.3,31.5,95,80,58,30.34,30.22,6,0,6,0.01
2013-10-31,60.0,48.9,32.8,58.5,47.8,31.5,98,96,93,30.28,29.76,11,0,11,0.27
2013-11-1,68.1,61.1,47.9,63.1,55.0,43.2,96,82,54,29.77,29.45,28,2,28,0.38
2013-11-2,62.9,48.9,37.9,48.9,43.3,36.5,97,83,53,29.82,29.63,15,0,15,0.01
2013-11-3,45.5,37.3,28.2,43.9,29.9,18.5,96,75,56,30.50,29.81,13,1,13,0.00
2013-11-4,43.4,30.8,20.5,25.8,21.5,17.8,91,70,43,30.72,30.50,10,0,10,0.00
2013-11-5,52.2,40.9,26.8,39.1,32.2,21.8,86,71,58,30.72,30.51,11,1,11,0.00
2013-11-6,56.2,49.5,38.7,48.5,43.5,36.5,95,80,67,30.51,30.04,13,1,13,0.00
2013-11-7,56.1,48.5,38.7,54.8,45.3,34.9,97,89,82,30.04,29.78,14,1,14,0.37
2013-11-8,44.2,38.3,31.6,36.8,31.7,26.1,92,78,55,30.19,29.90,22,1,22,0.00
2013-11-9,44.5,36.7,27.0,34.1,29.1,23.6,90,74,59,30.29,30.00,7,0,9,0.00
2013-11-10,44.9,42.6,37.4,40.4,35.9,30.9,91,77,61,30.04,29.83,18,1,18,0.07
2013-11-11,47.9,42.9,37.2,35.3,32.3,30.0,92,67,51,30.19,29.95,14,1,14,0.02
2013-11-12,45.6,31.6,25.7,35.6,23.8,18.8,86,73,61,30.30,29.94,13,1,13,0.00
2013-11-13,35.2,27.0,21.2,20.5,17.5,14.8,86,68,44,30.40,30.24,14,1,14,0.73
2013-11-14,50.4,37.9,27.3,26.2,21.6,17.4,73,54,35,30.24,30.13,9,1,9,0.00
2013-11-15,59.2,40.0,23.0,29.1,22.7,18.0,87,55,21,30.25,30.14,10,0,10,0.00
2013-11-16,60.2,42.4,31.3,41.7,33.4,27.1,93,72,41,30.35,30.24,5,0,5,0.00
2013-11-17,59.9,51.4,31.4,57.6,49.0,29.2,96,91,84,30.31,29.76,10,1,10,0.01
2013-11-18,61.6,55.5,44.0,59.3,44.8,30.3,96,69,45,29.77,29.54,18,2,18,0.41
2013-11-19,44.1,36.7,29.5,33.1,25.6,20.9,75,64,54,30.40,29.77,19,2,19,0.00
2013-11-20,38.4,28.3,19.4,22.3,19.6,16.6,89,70,49,30.68,30.40,9,0,9,0.00
2013-11-21,46.3,32.8,16.6,34.1,25.5,14.4,93,76,53,30.69,30.41,8,0,8,0.00
2013-11-22,47.9,44.6,38.1,46.3,42.9,33.8,98,94,84,30.41,29.91,7,0,7,0.17
2013-11-23,45.7,35.5,23.7,44.9,27.2,14.2,97,72,45,30.06,29.88,15,1,15,0.00
2013-11-24,24.4,20.4,15.9,15.3,8.7,3.7,75,61,44,30.36,29.97,21,2,21,0.00
2013-11-25,32.2,23.8,11.7,17.0,12.4,6.2,83,62,51,30.49,30.31,12,1,12,0.00
2013-11-26,34.8,31.6,26.1,32.5,25.5,15.0,94,79,53,30.35,30.13,12,1,12,0.20
2013-11-27,33.3,32.6,31.0,31.5,30.2,27.6,94,91,87,29.67,29.53,16,1,16,1.15
2013-11-28,31.0,25.0,18.0,27.6,17.8,13.7,91,74,58,30.49,29.67,19,2,19,1.64
2013-11-29,32.3,24.0,18.2,21.8,17.9,13.6,92,78,62,30.79,30.49,9,0,9,0.02
2013-11-30,31.5,23.1,11.7,26.0,13.9,9.3,100,70,46,30.82,30.42,6,1,11,0.00
2013-12-1,40.4,33.8,28.8,35.3,30.7,26.5,95,88,79,30.42,30.05,3,0,7,0.01
2013-12-2,40.2,34.1,28.1,37.4,32.1,27.1,96,93,84,30.06,29.93,3,0,3,0.01
2013-12-3,45.8,33.6,25.3,39.7,31.2,23.8,97,91,77,30.05,29.92,7,0,7,0.00
2013-12-4,47.9,32.3,22.2,35.5,28.3,21.0,97,86,61,30.19,30.05,7,0,7,0.00
2013-12-5,54.8,49.1,34.8,53.4,47.3,33.0,97,94,87,30.19,29.93,11,1,11,0.13
2013-12-6,54.2,40.3,31.6,53.7,38.1,30.3,98,92,82,30.20,29.88,14,1,14,0.31
2013-12-7,35.9,30.5,23.7,30.3,26.0,18.8,95,84,70,30.54,30.14,14,0,14,0.08
2013-12-8,30.1,25.0,17.8,22.8,20.2,15.6,93,82,68,30.64,30.47,9,0,9,0.00
2013-12-9,35.2,30.8,24.9,33.4,28.9,21.8,97,93,81,30.47,29.97,12,2,16,0.02
2013-12-10,34.3,28.6,17.2,31.9,26.1,15.2,97,90,73,30.07,29.86,7,0,7,0.00
2013-12-11,27.5,22.1,15.2,20.5,17.6,13.1,94,83,74,30.27,30.07,10,1,10,0.01
2013-12-12,22.9,17.4,7.6,15.2,9.0,4.2,88,70,51,30.37,30.11,11,1,11,0.00
2013-12-13,29.5,20.5,14.8,21.1,12.6,7.9,84,71,58,30.42,30.06,12,1,12,0.00
2013-12-14,19.8,15.4,11.8,18.0,11.4,8.4,93,84,73,30.58,29.99,23,1,23,0.59
2013-12-15,29.6,25.7,19.2,27.3,23.1,17.5,95,90,79,30.00,29.58,28,2,28,0.00
2013-12-16,26.1,19.1,4.4,22.4,12.7,1.8,92,76,58,30.25,29.78,12,1,12,0.00
2013-12-17,19.2,12.3,0.3,16.7,9.6,-2.7,92,89,83,30.28,30.01,10,0,10,0.00
2013-12-18,28.7,20.2,10.0,22.4,17.1,7.7,94,88,76,30.14,29.99,6,0,6,0.00
2013-12-19,40.2,29.4,18.3,26.8,23.6,16.9,94,79,57,30.17,30.02,13,1,13,0.06
2013-12-20,48.1,39.0,27.4,35.0,30.7,25.1,92,74,55,30.14,29.95,12,1,12,0.39
2013-12-21,56.2,49.7,44.0,49.4,41.0,32.8,97,73,59,29.98,29.86,9,2,13,0.02
2013-12-22,66.3,59.2,51.2,60.5,56.2,49.8,97,90,74,29.94,29.68,12,2,12,0.03
2013-12-23,58.2,44.5,34.0,55.5,42.3,28.5,97,92,79,30.19,29.91,11,1,11,0.44
2013-12-24,34.0,27.8,19.7,29.1,20.7,10.8,83,74,64,30.35,30.14,11,1,11,0.00
2013-12-25,20.9,16.9,10.8,14.6,9.1,5.3,86,71,56,30.57,30.34,11,0,11,0.00
2013-12-26,28.9,25.2,17.7,25.3,20.9,12.4,94,83,70,30.47,30.16,9,1,9,0.00
2013-12-27,34.2,24.2,13.6,25.2,19.9,11.7,95,84,66,30.35,30.27,8,0,8,0.00
2013-12-28,48.2,32.2,18.9,30.1,25.3,17.1,100,77,49,30.28,30.07,13,1,13,0.00
2013-12-29,44.2,33.3,25.6,37.8,31.4,23.9,97,93,61,30.08,29.55,7,0,7,1.08
2013-12-30,34.2,26.0,12.5,33.7,21.9,8.4,98,84,67,30.25,29.67,12,0,12,0.00
2013-12-31,23.8,18.7,9.9,20.3,14.1,7.4,92,82,71,30.22,30.06,12,1,12,0.00
2014-1-1,26.3,22.8,12.4,17.2,11.6,8.1,89,63,47,30.42,30.35,13,1,13,0.00
2014-1-2,19.9,10.4,0.8,17.1,7.5,-2.4,98,88,77,30.35,29.87,17,3,17,0.00